STARLINK-35033

Last updated on Tue Sep 16 2025 00:02:08 GMT+0000 (Coordinated Universal Time)

1 65468U 25195L 25257.83584380 -.00409178 00000+0 -25056-2 0 9991 2 65468 53.1558 1.1372 0000759 287.2664 72.8274 15.77712935 2984
UTC large
Height (km)
Speed (km/s)
/
Latitude / Longitude
Inclination (degrees)
Orbital Period (minutes)
Azimuth
Elevation
Range (km)
Doppler Factor

Next 0 passes for location: London (51.5072 / 0.1276)

Sorry there are no passes over London.